GW0392 Weather Reports


time (UTC)temp
C
wind
direction
speed
KPH
gust
KPH
rain 1hr
cm
rain 24hr
cm
rain mn
cm
humidity
%
barometer
mb
20260906130813 24 212 0.0 1.6 0.00 0.00 0.00 93 1013.8
20260906130313 23 220 0.0 0.0 0.00 0.00 0.00 93 1013.8
20260906125812 23 200 0.0 1.6 0.00 0.00 0.00 94 1013.8
20260906125309 23 214 0.0 0.0 0.00 0.00 0.00 94 1013.7
20260906124804 23 221 0.0 0.0 0.00 0.00 0.00 96 1013.7
20260906124300 22 225 0.0 0.0 0.00 0.00 0.00 96 1013.8
20260906123759 22 220 0.0 0.0 0.00 0.00 0.00 96 1013.8
20260906123254 22 220 0.0 0.0 0.00 0.00 0.00 96 1013.6
20260906122754 22 221 0.0 1.6 0.00 0.00 0.00 96 1013.7
20260906122249 22 221 0.0 3.2 0.00 0.00 0.00 96 1013.7
20260906121746 22 202 1.6 1.6 0.00 0.00 0.00 96 1013.7
20260906121242 22 206 0.0 0.0 0.00 0.00 0.00 96 1013.5
20260906120737 22 223 0.0 0.0 0.00 0.00 0.00 96 1013.6
20260906120234 22 227 0.0 0.0 0.00 0.00 0.00 96 1013.5
20260906115729 22 225 0.0 0.0 0.00 0.00 0.00 95 1013.4
20260906115224 22 221 0.0 0.0 0.00 0.00 0.00 95 1013.4
20260906114723 23 205 0.0 0.0 0.00 0.00 0.00 95 1013.2
20260906114218 23 220 0.0 0.0 0.00 0.00 0.00 95 1013.3
20260906113714 23 218 1.6 3.2 0.00 0.00 0.00 95 1013.2
20260906113213 23 214 0.0 3.2 0.00 0.00 0.00 95 1013.3
20260906112713 23 207 1.6 4.8 0.00 0.00 0.00 95 1013.0
20260906112210 23 192 3.2 3.2 0.00 0.00 0.00 95 1013.0
20260906111709 23 220 0.0 1.6 0.00 0.00 0.00 95 1013.0
20260906111204 23 221 0.0 3.2 0.00 0.00 0.00 95 1012.7
20260906110659 23 220 1.6 3.2 0.00 0.00 0.00 95 1013.0
20260906110154 23 225 1.6 3.2 0.00 0.00 0.00 95 1012.8
20260906105648 23 213 1.6 4.8 0.00 0.00 0.00 95 1012.8
20260906105144 23 215 0.0 1.6 0.00 0.00 0.00 94 1012.7
20260906104643 23 224 0.0 0.0 0.00 0.00 0.00 94 1012.5
20260906104137 23 220 0.0 0.0 0.00 0.00 0.00 94 1012.3
20260906103635 23 216 0.0 0.0 0.00 0.00 0.00 95 1012.4
20260906103130 23 223 0.0 0.0 0.00 0.00 0.00 95 1012.4
20260906102625 23 221 0.0 0.0 0.00 0.00 0.00 95 1012.5
20260906102120 23 219 0.0 0.0 0.00 0.00 0.00 94 1012.4
20260906101615 23 226 0.0 0.0 0.00 0.00 0.00 94 1012.5
20260906101115 23 225 0.0 0.0 0.00 0.00 0.00 94 1012.7
20260906100610 23 226 0.0 0.0 0.00 0.00 0.00 94 1012.3
20260906100110 23 223 0.0 0.0 0.00 0.00 0.00 94 1012.8
20260906095610 23 221 0.0 0.0 0.00 0.00 0.00 93 1012.7
20260906095106 23 225 0.0 0.0 0.00 0.00 0.00 93 1012.7
20260906094604 23 225 0.0 0.0 0.00 0.00 0.00 93 1012.9
20260906094100 23 225 0.0 0.0 0.00 0.00 0.00 92 1012.9
20260906093556 23 225 0.0 0.0 0.00 0.00 0.00 92 1013.1
20260906093051 24 221 0.0 0.0 0.00 0.00 0.00 91 1013.0
20260906092546 24 222 0.0 0.0 0.00 0.00 0.00 90 1013.0
20260906092041 24 221 0.0 0.0 0.00 0.00 0.00 90 1013.4
20260906091537 24 218 0.0 1.6 0.00 0.00 0.00 90 1013.2
20260906091033 23 218 0.0 1.6 0.00 0.00 0.00 91 1013.3
20260906090528 23 206 3.2 3.2 0.00 0.00 0.00 91 1013.3
20260906090023 23 219 0.0 0.0 0.00 0.00 0.00 91 1013.4
20260906085521 23 221 0.0 0.0 0.00 0.00 0.00 92 1013.6
20260906085021 23 222 0.0 0.0 0.00 0.00 0.00 92 1013.5
20260906084516 23 217 0.0 0.0 0.00 0.00 0.00 91 1013.7
20260906084015 24 220 0.0 0.0 0.00 0.00 0.00 92 1013.6
20260906083511 24 223 0.0 0.0 0.00 0.00 0.00 90 1013.4
20260906083010 24 224 0.0 0.0 0.00 0.00 0.00 90 1013.5
20260906082505 24 225 0.0 0.0 0.00 0.00 0.00 90 1013.1
20260906082001 25 224 0.0 1.6 0.00 0.00 0.00 90 1013.3
20260906081456 25 221 0.0 0.0 0.00 0.00 0.00 89 1013.2
20260906080952 25 219 0.0 0.0 0.00 0.00 0.00 88 1013.2
20260906080448 25 224 0.0 0.0 0.00 0.00 0.00 88 1013.1
20260906075943 25 223 0.0 1.6 0.00 0.00 0.00 88 1013.1
20260906075437 25 203 3.2 9.7 0.00 0.00 0.00 88 1012.7
20260906074932 24 213 3.2 4.8 0.00 0.00 0.00 89 1012.5
20260906074427 24 228 0.0 1.6 0.00 0.00 0.00 90 1012.7
20260906073926 23 220 0.0 3.2 0.00 0.00 0.00 91 1012.7
20260906073421 23 218 0.0 0.0 0.00 0.00 0.00 94 1012.5
20260906072917 23 226 0.0 0.0 0.00 0.00 0.00 94 1012.3
20260906072412 23 221 0.0 1.6 0.00 0.00 0.00 94 1012.8
20260906071908 23 220 0.0 1.6 0.00 0.00 0.00 96 1012.7
20260906071404 23 225 0.0 1.6 0.00 0.00 0.00 97 1012.7
20260906070859 23 213 1.6 1.6 0.00 0.00 0.00 97 1012.9
20260906070355 23 209 1.6 3.2 0.00 0.00 0.00 98 1013.0
20260906065851 23 217 1.6 3.2 0.00 0.00 0.00 98 1013.4
20260906065344 23 224 0.0 1.6 0.00 0.00 0.00 98 1013.5
20260906064840 23 221 0.0 1.6 0.00 0.00 0.00 98 1013.9
20260906064337 23 223 0.0 0.0 0.00 0.00 0.00 98 1013.7
20260906063836 23 221 0.0 0.0 0.00 0.00 0.00 98 1013.6
20260906063332 23 221 0.0 0.0 0.00 0.00 0.00 99 1013.5
20260906062827 22 211 0.0 0.0 0.00 0.00 0.00 99 1013.5
20260906062326 22 214 0.0 0.0 0.00 0.00 0.00 99 1013.7
20260906061822 22 215 0.0 0.0 0.00 0.00 0.00 99 1013.6
20260906061318 22 221 0.0 0.0 0.00 0.00 0.00 99 1013.6
20260906060813 22 221 0.0 0.0 0.00 0.00 0.00 99 1013.4
20260906060311 22 221 0.0 0.0 0.00 0.00 0.00 99 1013.3
20260906055806 22 219 0.0 0.0 0.00 0.00 0.00 99 1013.2
20260906055301 22 224 0.0 0.0 0.00 0.00 0.00 99 1013.0
20260906054756 22 225 0.0 0.0 0.00 0.00 0.00 99 1012.9
20260906054252 22 224 0.0 0.0 0.00 0.00 0.00 99 1012.9
20260906053748 22 223 0.0 0.0 0.00 0.00 0.00 99 1013.0
20260906053244 22 225 0.0 0.0 0.00 0.00 0.00 99 1013.1
20260906052738 22 225 0.0 0.0 0.00 0.00 0.00 99 1013.1
20260906052235 22 224 0.0 0.0 0.00 0.00 0.00 99 1013.0
20260906051732 22 225 0.0 0.0 0.00 0.00 0.00 99 1013.1
20260906051231 22 225 0.0 0.0 0.00 0.00 0.00 99 1012.9
20260906050726 22 223 0.0 0.0 0.00 0.00 0.00 98 1013.2
20260906050221 22 223 0.0 0.0 0.00 0.00 0.00 98 1013.2
20260906045720 22 223 0.0 0.0 0.00 0.00 0.00 98 1013.2
20260906045215 23 225 0.0 0.0 0.00 0.00 0.00 98 1013.3
20260906044706 23 223 0.0 0.0 0.00 0.00 0.00 98 1013.5
20260906044200 23 223 0.0 0.0 0.00 0.00 0.00 98 1013.3
20260906043656 23 223 0.0 0.0 0.00 0.00 0.00 98 1013.1
20260906043152 23 223 0.0 0.0 0.00 0.00 0.00 98 1013.2
20260906042651 23 226 0.0 0.0 0.00 0.00 0.00 98 1013.3
20260906042145 23 223 0.0 0.0 0.00 0.00 0.00 98 1013.3
20260906041641 23 222 0.0 0.0 0.00 0.00 0.00 98 1013.4
20260906041136 23 223 0.0 0.0 0.00 0.00 0.00 98 1013.3
20260906040631 23 225 0.0 0.0 0.00 0.00 0.00 98 1013.3
20260906040127 23 225 0.0 0.0 0.00 0.00 0.00 98 1013.2
20260906035622 23 225 0.0 0.0 0.00 0.05 0.05 98 1013.3
20260906035118 23 225 0.0 0.0 0.00 0.05 0.05 97 1013.5
20260906034618 23 225 0.0 0.0 0.00 0.05 0.05 97 1013.4
20260906034112 23 225 0.0 0.0 0.00 0.05 0.05 97 1013.6
20260906033608 23 225 0.0 0.0 0.00 0.05 0.05 97 1013.6
20260906033103 23 225 0.0 0.0 0.00 0.05 0.05 97 1013.4
20260906032600 23 223 0.0 0.0 0.00 0.05 0.05 97 1013.5
20260906032100 23 223 0.0 0.0 0.00 0.05 0.05 97 1013.5
20260906031555 23 224 0.0 0.0 0.00 0.05 0.05 96 1013.6
20260906031050 23 224 0.0 0.0 0.00 0.05 0.05 96 1013.4
20260906030550 23 225 0.0 0.0 0.00 0.05 0.05 96 1013.3
20260906030049 23 225 0.0 0.0 0.00 0.05 0.05 96 1013.4
20260906025544 23 226 0.0 0.0 0.00 0.05 0.05 96 1013.4
20260906025042 23 233 0.0 0.0 0.00 0.05 0.05 97 1013.5
20260906024537 23 227 0.0 0.0 0.00 0.05 0.05 97 1013.4
20260906024031 23 225 0.0 0.0 0.00 0.05 0.05 96 1013.1
20260906023527 23 225 0.0 0.0 0.00 0.05 0.05 96 1013.0
20260906023017 23 227 0.0 0.0 0.00 0.05 0.05 96 1013.1
20260906022512 24 222 0.0 0.0 0.00 0.05 0.05 96 1013.0
20260906022007 24 222 0.0 0.0 0.00 0.05 0.05 96 1013.2
20260906021503 24 225 0.0 0.0 0.00 0.05 0.05 96 1013.0
20260906020957 24 225 0.0 0.0 0.00 0.05 0.05 96 1012.9
20260906020451 24 225 0.0 0.0 0.00 0.05 0.05 96 1013.0
20260906015950 24 225 0.0 0.0 0.00 0.05 0.05 96 1013.1
20260906015449 24 225 0.0 0.0 0.00 0.05 0.05 96 1013.1
20260906014944 25 225 0.0 0.0 0.00 0.05 0.05 96 1013.0
20260906014444 25 225 0.0 0.0 0.00 0.05 0.05 96 1012.8
20260906013940 25 222 0.0 0.0 0.00 0.05 0.05 96 1012.5
20260906013435 25 222 0.0 0.0 0.00 0.05 0.05 95 1012.5
20260906012931 25 223 0.0 0.0 0.00 0.05 0.05 95 1012.4
20260906012431 25 223 0.0 0.0 0.00 0.05 0.05 94 1012.5
20260906011930 25 223 0.0 0.0 0.00 0.05 0.05 94 1012.2
20260906011425 25 223 0.0 0.0 0.00 0.05 0.05 94 1012.3
20260906010921 25 223 0.0 0.0 0.00 0.05 0.05 93 1012.4
20260906010416 25 223 0.0 0.0 0.00 0.05 0.05 93 1012.2
20260906005912 25 225 0.0 0.0 0.00 0.05 0.05 93 1012.2
20260906005412 26 226 0.0 0.0 0.00 0.05 0.05 92 1012.2
20260906004910 26 225 0.0 0.0 0.00 0.05 0.05 92 1012.0
20260906004405 26 224 0.0 0.0 0.00 0.05 0.05 93 1012.0
20260906003901 26 225 0.0 0.0 0.00 0.05 0.05 93 1012.0
20260906003356 26 225 0.0 0.0 0.00 0.05 0.05 93 1011.8
20260906002851 26 233 0.0 0.0 0.00 0.05 0.05 93 1012.0
20260906002350 26 226 0.0 0.0 0.00 0.05 0.05 92 1011.9
20260906001846 26 225 0.0 0.0 0.00 0.05 0.05 92 1011.9
20260906001342 26 229 0.0 1.6 0.00 0.05 0.05 92 1012.0
20260906000836 27 231 0.0 0.0 0.00 0.05 0.05 91 1012.0
20260906000333 27 227 0.0 0.0 0.00 0.05 0.05 90 1011.7
20260905235826 27 224 0.0 0.0 0.00 0.05 0.05 90 1011.7
20260905235326 27 227 0.0 0.0 0.00 0.05 0.05 89 1012.0
20260905234821 27 224 0.0 0.0 0.00 0.05 0.05 89 1012.1
20260905234316 28 225 0.0 0.0 0.00 0.05 0.05 88 1012.0
20260905233811 27 226 0.0 0.0 0.00 0.05 0.05 87 1012.1
20260905233306 28 224 0.0 0.0 0.00 0.05 0.05 87 1012.2
20260905232805 28 224 0.0 0.0 0.00 0.05 0.05 86 1012.3
20260905232305 28 226 0.0 0.0 0.00 0.05 0.05 86 1012.3
20260905231757 28 224 0.0 1.6 0.00 0.05 0.05 84 1012.1
20260905231252 28 226 0.0 1.6 0.00 0.05 0.05 84 1012.0
20260905230748 28 227 0.0 0.0 0.00 0.05 0.05 83 1011.8
20260905230246 28 225 0.0 0.0 0.00 0.05 0.05 82 1011.5
20260905225746 28 225 0.0 0.0 0.00 0.05 0.05 82 1011.4
20260905225241 29 228 0.0 1.6 0.00 0.05 0.05 81 1011.3
20260905224740 29 233 0.0 0.0 0.00 0.05 0.05 80 1011.7
20260905224236 29 234 0.0 0.0 0.00 0.05 0.05 78 1011.8
20260905223731 29 228 0.0 0.0 0.00 0.05 0.05 77 1011.8
20260905223228 29 227 0.0 0.0 0.00 0.05 0.05 75 1011.6
20260905222724 29 228 0.0 0.0 0.00 0.05 0.05 75 1011.8
20260905222223 30 225 0.0 0.0 0.00 0.05 0.05 77 1011.6
20260905221719 30 225 0.0 0.0 0.00 0.05 0.05 72 1011.8
20260905221216 30 220 0.0 1.6 0.00 0.05 0.05 69 1011.7
20260905220711 30 220 0.0 0.0 0.00 0.05 0.05 74 1011.9
20260905220207 31 225 0.0 0.0 0.00 0.05 0.05 68 1012.2
20260905215706 31 224 0.0 1.6 0.00 0.05 0.05 63 1012.1
20260905215202 31 225 1.6 1.6 0.00 0.05 0.05 65 1012.5
20260905214658 31 228 0.0 0.0 0.00 0.05 0.05 67 1012.3
20260905214153 31 227 0.0 0.0 0.00 0.05 0.05 69 1012.1
20260905213648 31 227 0.0 0.0 0.00 0.05 0.05 71 1012.4
20260905213144 30 227 0.0 0.0 0.00 0.05 0.05 72 1012.5
20260905212639 30 226 0.0 0.0 0.00 0.05 0.05 73 1012.5
20260905212138 30 234 1.6 1.6 0.00 0.05 0.05 74 1012.7
20260905211633 30 229 1.6 1.6 0.00 0.05 0.05 75 1012.5
20260905211128 29 234 3.2 3.2 0.00 0.05 0.05 76 1012.5
20260905210625 29 237 1.6 3.2 0.00 0.05 0.05 77 1012.4
20260905210125 30 241 1.6 3.2 0.00 0.05 0.05 77 1012.5
20260905205619 29 244 1.6 3.2 0.00 0.05 0.05 80 1012.5
20260905205118 28 226 1.6 3.2 0.00 0.05 0.05 81 1012.5
20260905204618 28 235 1.6 3.2 0.00 0.05 0.05 81 1012.4
20260905204114 28 240 0.0 1.6 0.00 0.05 0.05 83 1012.4
20260905203614 28 173 3.2 3.2 0.00 0.05 0.05 82 1012.3
20260905203109 28 230 0.0 3.2 0.00 0.05 0.05 80 1012.5
20260905202604 29 259 3.2 4.8 0.00 0.05 0.05 78 1012.2
20260905202059 31 252 3.2 8.0 0.00 0.05 0.05 74 1012.3
20260905201555 33 250 4.8 8.0 0.00 0.05 0.05 66 1012.3
20260905201054 33 210 1.6 4.8 0.00 0.05 0.05 66 1012.2
20260905200550 32 209 1.6 4.8 0.00 0.05 0.05 69 1012.1
20260905200044 32 209 3.2 3.2 0.00 0.05 0.05 71 1012.2
20260905195544 31 222 0.0 0.0 0.00 0.05 0.05 73 1012.3
20260905195040 30 220 1.6 3.2 0.00 0.05 0.05 75 1012.4
20260905194539 30 218 0.0 1.6 0.00 0.05 0.05 73 1012.7
20260905194038 30 218 0.0 1.6 0.00 0.05 0.05 82 1012.7
20260905193533 28 220 0.0 0.0 0.00 0.05 0.05 78 1012.5
20260905193029 27 218 0.0 0.0 0.00 0.05 0.05 81 1012.7
20260905192524 27 207 1.6 1.6 0.00 0.05 0.05 87 1012.5
20260905192021 27 217 0.0 0.0 0.00 0.05 0.05 96 1012.8
20260905191519 26 226 0.0 0.0 0.00 0.05 0.05 95 1012.9
20260905191018 26 218 0.0 0.0 0.00 0.05 0.05 96 1013.2
20260905190516 26 224 0.0 0.0 0.00 0.05 0.05 97 1013.2
20260905190015 25 227 0.0 0.0 0.00 0.05 0.05 97 1013.2
20260905185510 25 225 0.0 0.0 0.00 0.05 0.05 96 1013.3
20260905185009 25 227 0.0 1.6 0.00 0.05 0.05 96 1013.6
20260905184504 25 204 1.6 1.6 0.13 0.05 0.05 95 1013.3
20260905184003 25 219 0.0 1.6 0.13 0.05 0.05 93 1013.5
20260905183503 26 220 0.0 0.0 0.18 0.03 0.03 90 1013.4
20260905182957 27 220 0.0 0.0 0.18 0.03 0.03 85 1013.7
20260905182457 28 221 1.6 3.2 0.00 0.00 0.00 77 1013.7
20260905181952 29 225 3.2 3.2 0.00 0.00 0.00 70 1013.5
20260905181447 33 267 6.4 8.0 0.00 0.00 0.00 70 1013.7
20260905180946 33 227 0.0 1.6 0.00 0.00 0.00 58 1013.1
20260905180441 32 212 1.6 3.2 0.00 0.00 0.00 76 1013.3
20260905175936 30 224 0.0 0.0 0.00 0.00 0.00 82 1013.3
20260905175435 30 223 0.0 0.0 0.00 0.00 0.00 80 1013.5
20260905174931 29 227 0.0 0.0 0.00 0.00 0.00 86 1013.3
20260905174426 30 237 0.0 0.0 0.00 0.00 0.00 86 1013.5
20260905173922 31 222 0.0 0.0 0.00 0.00 0.00 79 1013.4
20260905173418 32 239 3.2 3.2 0.00 0.00 0.00 72 1013.7
20260905172913 34 265 4.8 4.8 0.00 0.00 0.00 62 1013.5
20260905172410 36 261 4.8 4.8 0.00 0.00 0.00 55 1013.4
20260905171907 36 218 0.0 1.6 0.00 0.00 0.00 52 1013.5
20260905171403 36 221 1.6 8.0 0.00 0.00 0.00 52 1013.3
20260905170859 36 184 3.2 3.2 0.00 0.00 0.00 52 1013.5
20260905170355 35 222 1.6 1.6 0.00 0.00 0.00 54 1013.7
20260905165854 35 206 1.6 1.6 0.00 0.00 0.00 54 1013.8
20260905165349 35 219 0.0 3.2 0.00 0.00 0.00 55 1013.7
20260905164844 35 202 1.6 3.2 0.00 0.00 0.00 56 1013.9
20260905164339 35 223 0.0 1.6 0.00 0.00 0.00 56 1013.8
20260905163835 35 221 0.0 1.6 0.00 0.00 0.00 58 1014.2
20260905163331 35 274 4.8 4.8 0.00 0.00 0.00 57 1014.1
20260905162826 35 224 1.6 1.6 0.00 0.00 0.00 59 1014.4
20260905162320 34 222 0.0 1.6 0.00 0.00 0.00 59 1014.3
20260905161815 33 233 1.6 1.6 0.00 0.00 0.00 61 1014.1
20260905161315 33 226 0.0 1.6 0.00 0.00 0.00 63 1014.1
20260905160813 33 215 1.6 4.8 0.00 0.00 0.00 61 1014.3
20260905160308 33 216 0.0 3.2 0.00 0.00 0.00 62 1014.3
20260905155802 33 218 1.6 1.6 0.00 0.00 0.00 64 1014.5
20260905155301 33 217 1.6 1.6 0.00 0.00 0.00 64 1014.7
20260905154755 32 207 1.6 3.2 0.00 0.00 0.00 65 1014.4
20260905154251 32 221 0.0 0.0 0.00 0.00 0.00 66 1014.4
20260905153746 32 226 0.0 1.6 0.00 0.00 0.00 66 1014.6
20260905153242 32 222 0.0 1.6 0.00 0.00 0.00 66 1014.7
20260905152736 32 222 0.0 0.0 0.00 0.00 0.00 69 1014.6
20260905152231 31 219 1.6 3.2 0.00 0.00 0.00 68 1014.7
20260905151731 31 238 0.0 0.0 0.00 0.00 0.00 70 1014.7
20260905151227 31 221 0.0 0.0 0.00 0.00 0.00 73 1014.9
20260905150726 31 219 0.0 3.2 0.00 0.00 0.00 72 1014.9
20260905150226 30 212 0.0 1.6 0.00 0.00 0.00 71 1014.9
20260905145724 30 215 0.0 1.6 0.00 0.00 0.00 72 1014.9
20260905145219 30 219 0.0 0.0 0.00 0.00 0.00 74 1014.9
20260905144717 30 214 0.0 1.6 0.00 0.00 0.00 73 1015.1
20260905144212 30 214 0.0 3.2 0.00 0.00 0.00 74 1015.2
20260905143711 29 219 0.0 0.0 0.00 0.00 0.00 78 1015.0
20260905143206 29 216 0.0 0.0 0.00 0.00 0.00 77 1015.1
20260905142704 28 218 0.0 1.6 0.00 0.00 0.00 77 1015.2
20260905142159 28 215 0.0 1.6 0.00 0.00 0.00 82 1015.1
20260905141655 28 216 1.6 3.2 0.00 0.00 0.00 83 1015.3
20260905141150 28 205 1.6 1.6 0.00 0.00 0.00 83 1015.2
20260905140645 28 212 0.0 0.0 0.00 0.00 0.00 81 1015.1
20260905140139 28 213 0.0 1.6 0.00 0.00 0.00 82 1015.2
20260905135634 27 216 0.0 1.6 0.00 0.00 0.00 83 1015.3
20260905135130 27 220 0.0 0.0 0.00 0.00 0.00 88 1015.2
20260905134624 26 224 0.0 0.0 0.00 0.00 0.00 89 1015.3
20260905134123 26 222 0.0 0.0 0.00 0.00 0.00 90 1015.3
20260905133619 26 225 0.0 0.0 0.00 0.00 0.00 91 1015.3
20260905133119 26 221 0.0 0.0 0.00 0.00 0.00 92 1015.5
20260905132618 25 220 0.0 0.0 0.00 0.00 0.00 92 1015.4
20260905132113 25 213 1.6 1.6 0.00 0.00 0.00 92 1015.4
20260905131608 25 217 1.6 1.6 0.00 0.00 0.00 94 1015.5
20260905131103 25 222 0.0 0.0 0.00 0.00 0.00 95 1015.6